TimeEST,TemperatureF,Dew PointF,Humidity,Sea Level PressureIn,VisibilityMPH,Wind Direction,Wind SpeedMPH,Gust SpeedMPH,PrecipitationIn,Events,Conditions,WindDirDegrees,DateUTC
12:10 AM,26.1,23.0,88,30.42,3.0,Calm,Calm,-,N/A,,Clear,0,2012-11-17 05:10:00
12:16 AM,26.1,23.0,88,30.42,1.8,Calm,Calm,-,N/A,,Clear,0,2012-11-17 05:16:00
12:29 AM,26.1,23.0,88,30.42,3.0,Calm,Calm,-,N/A,,Clear,0,2012-11-17 05:29:00
12:52 AM,26.1,21.9,84,30.42,7.0,Calm,Calm,-,N/A,,Clear,0,2012-11-17 05:52:00
1:52 AM,26.1,23.0,88,30.43,6.0,Calm,Calm,-,N/A,,Clear,0,2012-11-17 06:52:00
2:52 AM,25.0,21.9,88,30.44,5.0,Calm,Calm,-,N/A,,Clear,0,2012-11-17 07:52:00
3:52 AM,25.0,21.9,88,30.46,10.0,Calm,Calm,-,N/A,,Clear,0,2012-11-17 08:52:00
4:52 AM,26.1,23.0,88,30.49,10.0,Calm,Calm,-,N/A,,Clear,0,2012-11-17 09:52:00
5:52 AM,32.0,26.1,79,30.51,10.0,NNW,4.6,-,N/A,,Scattered Clouds,340,2012-11-17 10:52:00
6:07 AM,33.1,27.0,78,30.52,10.0,NNW,3.5,-,N/A,,Mostly Cloudy,330,2012-11-17 11:07:00
6:47 AM,33.8,26.6,75,30.53,10.0,NW,4.6,-,N/A,,Scattered Clouds,320,2012-11-17 11:47:00
6:52 AM,33.1,27.0,78,30.54,10.0,NNW,4.6,-,N/A,,Partly Cloudy,330,2012-11-17 11:52:00
7:52 AM,37.9,28.9,70,30.56,10.0,NNW,5.8,-,N/A,,Partly Cloudy,340,2012-11-17 12:52:00
8:33 AM,41.0,30.0,65,30.57,10.0,NNW,4.6,-,N/A,,Mostly Cloudy,340,2012-11-17 13:33:00
8:52 AM,41.0,28.9,62,30.58,10.0,North,8.1,-,N/A,,Mostly Cloudy,360,2012-11-17 13:52:00
9:52 AM,46.0,30.9,56,30.59,10.0,North,9.2,-,N/A,,Partly Cloudy,360,2012-11-17 14:52:00
11:52 AM,48.9,33.1,54,30.58,10.0,Variable,5.8,-,N/A,,Scattered Clouds,0,2012-11-17 16:52:00
12:52 PM,51.1,33.1,50,30.57,10.0,North,8.1,-,N/A,,Mostly Cloudy,10,2012-11-17 17:52:00
1:52 PM,50.0,32.0,50,30.58,10.0,Variable,4.6,-,N/A,,Scattered Clouds,0,2012-11-17 18:52:00
2:52 PM,48.9,32.0,52,30.58,10.0,Variable,5.8,-,N/A,,Clear,0,2012-11-17 19:52:00
3:52 PM,46.9,32.0,56,30.60,10.0,NE,4.6,-,N/A,,Clear,40,2012-11-17 20:52:00
4:52 PM,37.9,30.9,76,30.61,10.0,Calm,Calm,-,N/A,,Clear,0,2012-11-17 21:52:00
5:52 PM,33.1,30.0,89,30.63,8.0,Calm,Calm,-,N/A,,Clear,0,2012-11-17 22:52:00
6:52 PM,30.9,28.0,89,30.63,2.5,Calm,Calm,-,N/A,,Clear,0,2012-11-17 23:52:00
7:05 PM,30.0,27.0,88,30.62,1.2,Calm,Calm,-,N/A,,Clear,0,2012-11-18 00:05:00
7:25 PM,30.0,27.0,88,30.62,2.0,Calm,Calm,-,N/A,,Clear,0,2012-11-18 00:25:00
7:29 PM,30.0,27.0,88,30.63,1.2,Calm,Calm,-,N/A,,Clear,0,2012-11-18 00:29:00
7:37 PM,28.9,27.0,92,30.63,0.5,Calm,Calm,-,N/A,Fog,Light Freezing Fog,0,2012-11-18 00:37:00
7:47 PM,28.4,26.6,93,30.63,1.8,Calm,Calm,-,N/A,,Clear,0,2012-11-18 00:47:00
7:49 PM,28.4,26.6,93,30.63,3.0,Calm,Calm,-,N/A,,Clear,0,2012-11-18 00:49:00
7:52 PM,28.9,27.0,92,30.63,4.0,Calm,Calm,-,N/A,,Clear,0,2012-11-18 00:52:00
8:18 PM,28.9,26.1,89,30.64,1.8,Calm,Calm,-,N/A,,Clear,0,2012-11-18 01:18:00
8:21 PM,28.9,26.1,89,30.64,0.8,Calm,Calm,-,N/A,,Clear,0,2012-11-18 01:21:00
8:44 PM,28.0,26.1,92,30.64,0.2,Calm,Calm,-,N/A,Fog,Light Freezing Fog,0,2012-11-18 01:44:00
8:52 PM,28.0,26.1,92,30.65,0.2,Calm,Calm,-,N/A,Fog,Light Freezing Fog,0,2012-11-18 01:52:00
9:14 PM,27.0,25.0,92,30.65,0.2,Calm,Calm,-,N/A,Fog,Light Freezing Fog,0,2012-11-18 02:14:00
9:28 PM,27.0,24.1,89,30.65,1.5,Calm,Calm,-,N/A,,Clear,0,2012-11-18 02:28:00
9:33 PM,27.0,24.1,89,30.65,1.0,Calm,Calm,-,N/A,,Mist,0,2012-11-18 02:33:00
9:40 PM,28.0,25.0,88,30.65,0.5,Calm,Calm,-,N/A,Fog,Light Freezing Fog,0,2012-11-18 02:40:00
9:52 PM,27.0,25.0,92,30.65,1.0,Calm,Calm,-,N/A,,Mist,0,2012-11-18 02:52:00
10:01 PM,27.0,25.0,92,30.65,1.5,Calm,Calm,-,N/A,,Partly Cloudy,0,2012-11-18 03:01:00
10:09 PM,27.0,24.1,89,30.65,0.8,Calm,Calm,-,N/A,,Clear,0,2012-11-18 03:09:00
10:21 PM,27.0,24.1,89,30.65,1.5,Calm,Calm,-,N/A,,Clear,0,2012-11-18 03:21:00
10:25 PM,26.1,23.0,88,30.65,3.0,Calm,Calm,-,N/A,,Clear,0,2012-11-18 03:25:00
10:52 PM,26.1,24.1,92,30.65,2.5,Calm,Calm,-,N/A,,Clear,0,2012-11-18 03:52:00
11:04 PM,27.0,24.1,89,30.65,1.8,Calm,Calm,-,N/A,,Clear,0,2012-11-18 04:04:00
11:12 PM,26.1,23.0,88,30.65,3.0,Calm,Calm,-,N/A,,Clear,0,2012-11-18 04:12:00
11:52 PM,26.1,23.0,88,30.65,3.0,Calm,Calm,-,N/A,,Clear,0,2012-11-18 04:52:00